O3B FM5 (39188 NORAD) Tracking and Keplerian Element Data

This shows tracking and keplerian element data for the satellite.

Feedback or suggestion? Click here.




ElementValue
Catalog39188
NameO3B FM5
Epoch Orbit9980
Epoch Day344.80259183
Epoch Year2018
RAAN32.9395
Inclination0.0374
Eccentricity0.0003315
Argument of Perigee230.4569
Mean Anonmoly96.5681
Mean Motion5.00110941
Decay Rate-2.5E-07
L11 39188U 13031A 18344.80259183 -.00000025 00000-0 00000-0 0 9991
L22 39188 0.0374 32.9395 0003315 230.4569 96.5681 5.00110941 99809

Live tracking and technical data element details for O3B FM5 (NORAD 39188). O3B FM5 can be tracked NOW for your location showing map with azimuth and elevation plus other details from your city location.

Track the satellite on the map from your city or location and see movement details for azimuth, elevation, latitude, longitude, range, height, and movement on the map or in text.







IsCatalogInMostPopularTable: catalog: 39188, numindb: 77
Update: records affected: 1



GetName: 39188 O3B FM5

Hit Count: updated at: Thu, 13 Dec 2018 05:02:40 GMT